timestamp,MVAR,MW,kV
2014-12-08 10:00:00,0.02,-0.2,10.31
2014-12-08 11:00:00,-0.55,0.66,10.28
2014-12-08 12:00:00,-0.7,0.84,10.32
2014-12-08 13:00:00,-0.27,0.13,10.32
2014-12-08 14:00:00,-0.21,0.05,10.34
2014-12-08 15:00:00,-0.22,0.12,10.39
2014-12-08 16:00:00,-0.12,-0.03,10.21
2014-12-08 17:00:00,-0.14,-0.05,10.23
2014-12-08 18:00:00,0.22,-0.59,10.32
2014-12-08 19:00:00,0.27,-0.8,10.35
2014-12-08 20:00:00,-0.11,-0.33,10.32
2014-12-08 21:00:00,0.53,-1.24,10.33
2014-12-08 22:00:00,-0.06,-0.52,10.34
2014-12-08 23:00:00,0.37,-1.2,10.27
2014-12-09 00:00:00,-0.01,-0.69,10.21
2014-12-09 01:00:00,0.09,-0.83,10.2
2014-12-09 02:00:00,-0.58,0.03,10.19
2014-12-09 03:00:00,-0.53,0.08,10.17
2014-12-09 04:00:00,-0.44,-0.02,10.15
2014-12-09 05:00:00,-0.58,0.22,10.13
2014-12-09 06:00:00,0.24,-0.74,10.32
2014-12-09 07:00:00,-0.39,0.23,10.28
2014-12-09 08:00:00,-0.78,1.03,10.31
2014-12-09 09:00:00,-0.35,0.39,10.31
2014-12-09 10:00:00,-0.03,0.0,10.25
2014-12-09 11:00:00,-0.64,0.75,10.23
2014-12-09 12:00:00,-0.4,0.48,10.26
2014-12-09 13:00:00,0.06,-0.26,10.23
2014-12-09 14:00:00,0.16,-0.44,10.24
2014-12-09 15:00:00,0.92,-1.47,10.31
2014-12-09 16:00:00,1.75,-2.58,10.33
2014-12-09 17:00:00,2.63,-3.61,10.3
2014-12-09 18:00:00,4.0,-5.28,10.23
2014-12-09 19:00:00,5.36,-6.89,10.15
2014-12-09 20:00:00,6.3,-7.78,10.32
2014-12-09 21:00:00,7.99,-9.45,10.26
2014-12-09 22:00:00,8.41,-9.91,10.23
2014-12-09 23:00:00,8.57,-10.13,10.21
2014-12-10 00:00:00,8.58,-10.02,10.27
2014-12-10 01:00:00,8.29,-9.72,10.27
2014-12-10 02:00:00,7.83,-8.88,10.28
2014-12-10 03:00:00,7.87,-8.87,10.29
2014-12-10 04:00:00,7.92,-9.27,10.32
2014-12-10 05:00:00,7.91,-9.24,10.31
2014-12-10 06:00:00,1.16,-1.73,10.33
2014-12-10 07:00:00,0.89,-1.46,10.26
2014-12-10 08:00:00,1.92,-2.72,10.23
2014-12-10 09:00:00,2.39,-3.26,10.28
2014-12-10 10:00:00,2.34,-3.19,10.24
2014-12-10 11:00:00,4.79,-5.97,10.3
2014-12-10 12:00:00,2.64,-3.37,10.22
2014-12-10 13:00:00,1.8,-2.48,10.25
2014-12-10 14:00:00,3.47,-4.72,10.28
2014-12-10 15:00:00,4.01,-5.39,10.25
2014-12-10 16:00:00,5.01,-6.35,10.2
2014-12-10 17:00:00,4.54,-5.89,10.17
2014-12-10 18:00:00,6.77,-8.11,10.21
2014-12-10 19:00:00,6.07,-7.57,10.26
2014-12-10 20:00:00,6.8,-8.28,10.16
2014-12-10 21:00:00,5.2,-6.61,10.32
2014-12-10 22:00:00,4.39,-5.57,10.23
2014-12-10 23:00:00,4.67,-6.32,10.27
2014-12-11 00:00:00,6.17,-7.83,10.24
2014-12-11 01:00:00,2.04,-3.33,10.21
2014-12-11 02:00:00,6.71,-8.33,10.3
2014-12-11 03:00:00,3.04,-4.6,10.29
2014-12-11 04:00:00,1.3,-2.23,10.22
2014-12-11 05:00:00,2.27,-3.33,10.18
2014-12-11 06:00:00,3.13,-4.33,10.31
2014-12-11 07:00:00,0.27,-0.57,10.27
2014-12-11 08:00:00,0.71,-1.01,10.2
2014-12-11 09:00:00,2.49,-3.4,10.27
2014-12-11 10:00:00,2.88,-4.0,10.2
2014-12-11 11:00:00,0.93,-1.3,10.18
2014-12-11 12:00:00,2.09,-2.93,10.21
2014-12-11 13:00:00,1.37,-2.02,10.21
2014-12-11 14:00:00,0.71,-1.25,10.23
2014-12-11 15:00:00,-0.02,-0.08,10.28
2014-12-11 16:00:00,2.1,-3.03,10.29
2014-12-11 17:00:00,1.03,-1.61,10.37
2014-12-11 18:00:00,1.03,-1.5,10.35
2014-12-11 19:00:00,2.12,-3.1,10.26
2014-12-11 20:00:00,1.42,-2.43,10.18
2014-12-11 21:00:00,0.63,-1.33,10.17
2014-12-11 22:00:00,0.24,-0.71,10.2
2014-12-11 23:00:00,0.5,-0.93,10.22
2014-12-12 00:00:00,0.15,-0.61,10.27
2014-12-12 01:00:00,-0.39,0.05,10.28
2014-12-12 02:00:00,-0.32,0.01,10.26
2014-12-12 03:00:00,0.41,-1.17,10.3
2014-12-12 04:00:00,0.16,-0.82,10.29
2014-12-12 05:00:00,0.14,-0.76,10.29
2014-12-12 06:00:00,-0.23,-0.05,10.18
2014-12-12 07:00:00,0.24,-0.64,10.2
2014-12-12 08:00:00,-0.45,0.56,10.24
2014-12-12 09:00:00,0.11,-0.18,10.33
2014-12-12 10:00:00,1.77,-2.62,10.3
2014-12-12 11:00:00,-0.1,-0.11,10.33
2014-12-12 12:00:00,-1.01,1.34,10.37
2014-12-12 13:00:00,-1.06,1.33,10.4
2014-12-12 14:00:00,-0.46,0.56,10.3
2014-12-12 15:00:00,-0.47,0.49,10.28
2014-12-12 16:00:00,0.11,-0.22,10.24
2014-12-12 17:00:00,0.47,-0.73,10.23
2014-12-12 18:00:00,0.24,-0.6,10.27
2014-12-12 19:00:00,-0.65,0.53,10.12
2014-12-12 20:00:00,0.1,-0.56,10.16
2014-12-12 21:00:00,-0.31,0.04,10.24
2014-12-12 22:00:00,-0.45,0.28,10.29
2014-12-12 23:00:00,1.54,-2.57,10.32
2014-12-13 00:00:00,1.61,-2.78,10.29
2014-12-13 01:00:00,1.02,-2.11,10.28
2014-12-13 02:00:00,3.66,-5.34,10.16
2014-12-13 03:00:00,4.88,-6.69,10.2
2014-12-13 04:00:00,5.47,-7.29,10.28
2014-12-13 05:00:00,4.87,-6.6,10.26
2014-12-13 06:00:00,3.64,-5.06,10.37
2014-12-13 07:00:00,3.77,-5.24,10.22
2014-12-13 08:00:00,2.73,-3.88,10.24
2014-12-13 09:00:00,3.09,-4.01,10.2
2014-12-13 10:00:00,2.92,-3.96,10.19
2014-12-13 11:00:00,2.78,-4.04,10.27
2014-12-13 12:00:00,2.18,-3.35,10.25
2014-12-13 13:00:00,2.65,-3.92,10.2
2014-12-13 14:00:00,3.14,-4.6,10.23
2014-12-13 15:00:00,1.53,-2.67,10.25
2014-12-13 16:00:00,1.33,-2.41,10.17
2014-12-13 17:00:00,0.15,-0.98,10.17
2014-12-13 18:00:00,0.49,-1.3,10.16
2014-12-13 19:00:00,1.14,-2.22,10.22
2014-12-13 20:00:00,0.02,-0.53,10.22
2014-12-13 21:00:00,-0.84,0.72,10.22
2014-12-13 22:00:00,-0.12,-0.2,10.24
2014-12-13 23:00:00,0.69,-1.4,10.28
2014-12-14 00:00:00,0.64,-1.6,10.26
2014-12-14 01:00:00,0.97,-2.07,10.25
2014-12-14 02:00:00,-0.09,-0.75,10.22
2014-12-14 03:00:00,0.78,-1.95,10.2
2014-12-14 04:00:00,1.15,-2.35,10.22
2014-12-14 05:00:00,1.53,-2.81,10.2
2014-12-14 06:00:00,1.06,-2.13,10.18
2014-12-14 07:00:00,0.88,-1.89,10.15
2014-12-14 08:00:00,1.11,-2.19,10.13
2014-12-14 09:00:00,1.7,-2.92,10.17
2014-12-14 10:00:00,2.71,-4.02,10.27
2014-12-14 11:00:00,2.79,-4.17,10.24
2014-12-14 12:00:00,3.28,-4.78,10.21
2014-12-14 13:00:00,3.39,-4.94,10.21
2014-12-14 14:00:00,3.28,-4.69,10.19
2014-12-14 15:00:00,4.04,-5.38,10.19
2014-12-14 16:00:00,5.56,-7.05,10.14
2014-12-14 17:00:00,5.64,-7.09,10.25
2014-12-14 18:00:00,6.28,-7.67,10.22
2014-12-14 19:00:00,6.38,-7.91,10.27
2014-12-14 20:00:00,6.24,-7.79,10.28
2014-12-14 21:00:00,6.24,-7.86,10.23
2014-12-14 22:00:00,7.31,-8.99,10.22
2014-12-14 23:00:00,7.24,-8.98,10.27
2014-12-15 00:00:00,6.53,-8.22,10.32
2014-12-15 01:00:00,6.85,-8.48,10.32
2014-12-15 02:00:00,7.06,-8.66,10.35
2014-12-15 03:00:00,6.71,-8.31,10.29
2014-12-15 04:00:00,0.82,-1.38,10.32
2014-12-15 05:00:00,0.26,-0.64,10.34
2014-12-15 06:00:00,1.95,-2.89,10.26
2014-12-15 07:00:00,0.82,-1.37,10.25
2014-12-15 08:00:00,0.23,-0.57,10.26
2014-12-15 09:00:00,1.05,-1.49,10.34
2014-12-15 10:00:00,-0.3,0.01,10.31
2014-12-15 11:00:00,1.68,-2.46,10.32
2014-12-15 12:00:00,0.18,-0.54,10.36
2014-12-15 13:00:00,2.27,-3.15,10.3
2014-12-15 14:00:00,0.97,-1.57,10.38
2014-12-15 15:00:00,1.44,-2.21,10.36
2014-12-15 16:00:00,2.05,-2.99,10.15
2014-12-15 17:00:00,3.13,-4.03,10.33
2014-12-15 18:00:00,2.63,-3.47,10.33
2014-12-15 19:00:00,1.42,-2.24,10.28
2014-12-15 20:00:00,1.84,-2.9,10.25
2014-12-15 21:00:00,-0.61,0.27,10.13
2014-12-15 22:00:00,-1.11,1.09,10.15
2014-12-15 23:00:00,-0.16,-0.1,10.19
2014-12-16 00:00:00,-0.24,-0.14,10.21
2014-12-16 01:00:00,0.32,-0.84,10.23
2014-12-16 02:00:00,0.15,-0.7,10.19
2014-12-16 03:00:00,1.01,-1.83,10.14
2014-12-16 04:00:00,1.9,-3.14,10.21
2014-12-16 05:00:00,3.74,-5.29,10.24
2014-12-16 06:00:00,3.76,-5.18,10.18
2014-12-16 07:00:00,3.48,-4.76,10.34
2014-12-16 08:00:00,2.37,-3.38,10.25
2014-12-16 09:00:00,0.64,-1.31,10.18
2014-12-16 10:00:00,-0.14,-0.26,10.14
2014-12-16 11:00:00,-0.13,-0.24,10.16
2014-12-16 12:00:00,-0.57,0.43,10.17
2014-12-16 13:00:00,0.62,-1.1,10.15
2014-12-16 14:00:00,0.55,-1.11,10.16
2014-12-16 15:00:00,0.59,-1.21,10.17
2014-12-16 16:00:00,1.88,-2.84,10.13
2014-12-16 17:00:00,1.69,-2.41,10.35
2014-12-16 18:00:00,1.06,-1.84,10.27
2014-12-16 19:00:00,2.32,-3.54,10.23
2014-12-16 20:00:00,3.2,-4.49,10.3
2014-12-16 21:00:00,3.43,-4.81,10.37
2014-12-16 22:00:00,2.42,-3.82,10.28
2014-12-16 23:00:00,2.14,-3.53,10.25
2014-12-17 00:00:00,2.68,-4.16,10.27
2014-12-17 01:00:00,2.36,-3.79,10.29
2014-12-17 02:00:00,2.06,-3.37,10.28
2014-12-17 03:00:00,1.3,-2.47,10.24
2014-12-17 04:00:00,-0.02,-0.72,10.21
2014-12-17 05:00:00,0.11,-0.79,10.19
2014-12-17 06:00:00,-0.12,-0.23,10.23
2014-12-17 07:00:00,0.0,-0.51,10.29
2014-12-17 08:00:00,-1.13,1.68,10.29
2014-12-17 09:00:00,-0.31,0.61,10.34
2014-12-17 10:00:00,-0.66,0.98,10.29
2014-12-17 11:00:00,-0.14,0.47,10.29
2014-12-17 12:00:00,-0.25,0.73,10.32
2014-12-17 13:00:00,-0.02,0.18,10.32
2014-12-17 14:00:00,-0.33,0.5,10.34
2014-12-17 15:00:00,-0.39,0.64,10.38
2014-12-17 16:00:00,-0.12,0.22,10.34
2014-12-17 17:00:00,-1.02,1.18,10.27
2014-12-17 18:00:00,-0.7,0.89,10.27
2014-12-17 19:00:00,-0.23,0.11,10.26
2014-12-17 20:00:00,0.16,-0.61,10.2
2014-12-17 21:00:00,0.78,-1.63,10.18
2014-12-17 22:00:00,0.92,-1.93,10.2
2014-12-17 23:00:00,0.58,-1.42,10.21
2014-12-18 00:00:00,0.08,-0.81,10.23
2014-12-18 01:00:00,0.0,-0.58,10.23
2014-12-18 02:00:00,0.01,-0.57,10.16
2014-12-18 03:00:00,0.55,-1.34,10.14
2014-12-18 04:00:00,0.83,-1.65,10.12
2014-12-18 05:00:00,1.21,-2.11,10.11
2014-12-18 06:00:00,0.39,-1.07,10.17
2014-12-18 07:00:00,0.96,-1.57,10.23
2014-12-18 08:00:00,2.78,-3.71,10.17
2014-12-18 09:00:00,2.16,-3.02,10.31
2014-12-18 10:00:00,2.07,-2.87,10.3
2014-12-18 11:00:00,2.53,-3.39,10.3
2014-12-18 12:00:00,2.3,-3.09,10.34
2014-12-18 13:00:00,2.29,-3.11,10.35
2014-12-18 14:00:00,0.92,-1.34,10.4
2014-12-18 15:00:00,0.68,-1.08,10.32
2014-12-18 16:00:00,0.48,-0.88,10.25
2014-12-18 17:00:00,-0.02,-0.24,10.21
2014-12-18 18:00:00,-0.52,0.35,10.22
2014-12-18 19:00:00,0.69,-1.29,10.19
2014-12-18 20:00:00,4.71,-6.05,10.17
2014-12-18 21:00:00,6.99,-8.4,10.11
2014-12-18 22:00:00,8.28,-9.77,10.18
2014-12-18 23:00:00,6.93,-8.47,10.35
2014-12-19 00:00:00,3.9,-5.41,10.27
2014-12-19 01:00:00,2.58,-3.88,10.35
2014-12-19 02:00:00,2.9,-4.29,10.34
2014-12-19 03:00:00,2.0,-3.21,10.34
2014-12-19 04:00:00,2.37,-3.6,10.28
2014-12-19 05:00:00,1.85,-2.63,10.24
2014-12-19 06:00:00,2.97,-4.0,10.27
2014-12-19 07:00:00,1.36,-1.87,10.28
2014-12-19 08:00:00,1.42,-1.84,10.28
2014-12-19 09:00:00,2.01,-2.44,10.27
2014-12-19 10:00:00,2.09,-2.75,10.26
2014-12-19 11:00:00,3.12,-3.82,10.19
2014-12-19 12:00:00,5.61,-6.83,10.31
2014-12-19 13:00:00,6.88,-8.07,10.25
2014-12-19 14:00:00,6.92,-8.2,10.3
2014-12-19 15:00:00,4.49,-5.62,10.24
2014-12-19 16:00:00,5.02,-6.17,10.17
2014-12-19 17:00:00,4.08,-5.14,10.25
2014-12-19 18:00:00,5.22,-6.34,10.21
2014-12-19 19:00:00,6.1,-7.22,10.26
2014-12-19 20:00:00,5.27,-6.51,10.37
2014-12-19 21:00:00,4.08,-5.3,10.34
2014-12-19 22:00:00,4.18,-5.57,10.31
2014-12-19 23:00:00,5.45,-6.9,10.32
2014-12-20 00:00:00,6.02,-7.59,10.23
2014-12-20 01:00:00,4.31,-5.72,10.26
2014-12-20 02:00:00,6.6,-8.24,10.26
2014-12-20 03:00:00,5.32,-6.94,10.28
2014-12-20 04:00:00,4.55,-6.04,10.28
2014-12-20 05:00:00,4.9,-6.11,10.23
2014-12-20 06:00:00,5.89,-7.38,10.33
2014-12-20 07:00:00,2.37,-3.37,10.22
2014-12-20 08:00:00,5.41,-6.72,10.27
2014-12-20 09:00:00,6.42,-7.67,10.2
2014-12-20 10:00:00,7.09,-8.22,10.21
2014-12-20 11:00:00,5.63,-6.82,10.28
2014-12-20 12:00:00,4.21,-5.35,10.28
2014-12-20 13:00:00,4.37,-5.51,10.31
2014-12-20 14:00:00,5.22,-6.47,10.2
2014-12-20 15:00:00,7.92,-9.07,10.13
2014-12-20 16:00:00,7.68,-8.59,10.25
2014-12-20 17:00:00,7.06,-7.94,10.27
2014-12-20 18:00:00,6.0,-7.09,10.3
2014-12-20 19:00:00,5.33,-6.57,10.27
2014-12-20 20:00:00,2.71,-3.82,10.12
2014-12-20 21:00:00,3.18,-4.47,10.3
2014-12-20 22:00:00,2.52,-3.68,10.3
2014-12-20 23:00:00,2.87,-4.18,10.28
2014-12-21 00:00:00,3.12,-4.57,10.26
2014-12-21 01:00:00,3.87,-5.46,10.27
2014-12-21 02:00:00,2.62,-3.94,10.36
2014-12-21 03:00:00,1.15,-2.06,10.38
2014-12-21 04:00:00,1.88,-2.97,10.4
2014-12-21 05:00:00,2.1,-3.15,10.37
2014-12-21 06:00:00,1.07,-1.76,10.34
2014-12-21 07:00:00,-0.04,-0.25,10.32
2014-12-21 08:00:00,-0.12,0.03,10.29
2014-12-21 09:00:00,1.25,-1.58,10.27
2014-12-21 10:00:00,0.15,-0.44,10.26
2014-12-21 11:00:00,1.28,-1.98,10.24
2014-12-21 12:00:00,1.3,-1.98,10.26
2014-12-21 13:00:00,1.21,-1.91,10.27
2014-12-21 14:00:00,1.05,-1.74,10.28
2014-12-21 15:00:00,3.07,-4.19,10.16
2014-12-21 16:00:00,4.0,-5.24,10.19
2014-12-21 17:00:00,5.29,-6.5,10.16
2014-12-21 18:00:00,6.13,-7.08,10.28
2014-12-21 19:00:00,5.56,-6.58,10.27
2014-12-21 20:00:00,5.94,-7.33,10.23
2014-12-21 21:00:00,5.08,-6.49,10.32
2014-12-21 22:00:00,3.94,-5.27,10.32
2014-12-21 23:00:00,3.04,-4.44,10.14
2014-12-22 00:00:00,3.96,-5.45,10.16
2014-12-22 01:00:00,4.13,-5.57,10.21
2014-12-22 02:00:00,5.9,-7.4,10.15
2014-12-22 03:00:00,5.74,-7.12,10.29
2014-12-22 04:00:00,3.07,-4.19,10.25
2014-12-22 05:00:00,4.3,-5.53,10.17
2014-12-22 06:00:00,5.54,-6.92,10.18
2014-12-22 07:00:00,6.56,-7.66,10.27
2014-12-22 08:00:00,5.32,-6.34,10.28
2014-12-22 09:00:00,5.32,-6.47,10.2
2014-12-22 10:00:00,5.06,-6.22,10.18
2014-12-22 11:00:00,6.52,-7.57,10.31
2014-12-22 12:00:00,4.67,-5.66,10.32
2014-12-22 13:00:00,3.37,-4.32,10.24
2014-12-22 14:00:00,2.71,-3.39,10.29
2014-12-22 15:00:00,2.03,-2.63,10.33
2014-12-22 16:00:00,2.23,-2.89,10.36
2014-12-22 17:00:00,0.87,-1.2,10.24
2014-12-22 18:00:00,1.67,-2.42,10.29
2014-12-22 19:00:00,1.14,-1.91,10.15
2014-12-22 20:00:00,2.83,-3.85,10.28
2014-12-22 21:00:00,1.28,-1.89,10.34
2014-12-22 22:00:00,0.67,-1.27,10.34
2014-12-22 23:00:00,0.91,-1.9,10.27
2014-12-23 00:00:00,1.09,-2.09,10.26
2014-12-23 01:00:00,1.85,-3.03,10.25
2014-12-23 02:00:00,2.13,-3.4,10.22
2014-12-23 03:00:00,2.0,-3.2,10.24
2014-12-23 04:00:00,2.35,-3.69,10.22
2014-12-23 05:00:00,2.5,-3.8,10.2
2014-12-23 06:00:00,1.78,-2.84,10.15
2014-12-23 07:00:00,2.87,-4.01,10.2
2014-12-23 08:00:00,2.85,-3.89,10.17
2014-12-23 09:00:00,1.6,-2.38,10.23
2014-12-23 10:00:00,1.57,-2.21,10.22
2014-12-23 11:00:00,2.68,-3.62,10.18
2014-12-23 12:00:00,2.41,-3.42,10.2
2014-12-23 13:00:00,2.5,-3.39,10.19
2014-12-23 14:00:00,3.88,-4.92,10.21
2014-12-23 15:00:00,1.96,-2.64,10.28
2014-12-23 16:00:00,1.87,-2.56,10.27
2014-12-23 17:00:00,1.55,-2.05,10.32
2014-12-23 18:00:00,0.64,-0.94,10.39
2014-12-23 19:00:00,0.03,-0.4,10.28
2014-12-23 20:00:00,0.09,-0.57,10.21
2014-12-23 21:00:00,0.22,-0.84,10.22
2014-12-23 22:00:00,0.04,-0.53,10.26
2014-12-23 23:00:00,-0.31,0.12,10.28
2014-12-24 00:00:00,0.0,-0.39,10.27
2014-12-24 01:00:00,-0.37,0.16,10.3
2014-12-24 02:00:00,-0.99,0.81,10.34
2014-12-24 03:00:00,-1.18,1.08,10.33
2014-12-24 04:00:00,-1.21,1.17,10.3
2014-12-24 05:00:00,-1.21,1.24,10.24
2014-12-24 06:00:00,-1.24,1.34,10.21
2014-12-24 07:00:00,-1.25,1.45,10.2
2014-12-24 08:00:00,-1.12,1.42,10.17
2014-12-24 09:00:00,-0.93,1.24,10.16
2014-12-24 10:00:00,0.06,-0.15,10.15
2014-12-24 11:00:00,-0.17,-0.08,10.13
2014-12-24 12:00:00,-1.04,1.21,10.2
2014-12-24 13:00:00,-1.42,1.54,10.28
2014-12-24 14:00:00,-1.2,1.32,10.28
2014-12-24 15:00:00,-0.41,0.3,10.33
2014-12-24 16:00:00,0.38,-0.74,10.34
2014-12-24 17:00:00,0.07,-0.27,10.32
2014-12-24 18:00:00,-0.5,0.52,10.38
2014-12-24 19:00:00,-0.74,0.84,10.23
2014-12-24 20:00:00,-1.11,1.12,10.24
2014-12-24 21:00:00,-1.24,1.08,10.29
2014-12-24 22:00:00,-1.13,0.89,10.32
2014-12-24 23:00:00,-0.05,-0.44,10.35
2014-12-25 00:00:00,0.63,-1.36,10.27
2014-12-25 01:00:00,0.53,-1.34,10.28
2014-12-25 02:00:00,0.88,-1.76,10.28
2014-12-25 03:00:00,1.78,-3.03,10.25
2014-12-25 04:00:00,3.46,-5.1,10.15
2014-12-25 05:00:00,5.33,-7.15,10.19
2014-12-25 06:00:00,5.49,-7.23,10.18
2014-12-25 07:00:00,4.92,-6.49,10.19
2014-12-25 08:00:00,4.56,-6.03,10.15
2014-12-25 09:00:00,4.53,-5.78,10.19
2014-12-25 10:00:00,2.05,-2.86,10.34
2014-12-25 11:00:00,2.21,-3.11,10.33
2014-12-25 12:00:00,1.95,-2.8,10.37
2014-12-25 13:00:00,0.72,-1.21,10.39
2014-12-25 14:00:00,-0.11,0.04,10.4
2014-12-25 15:00:00,-0.09,0.03,10.39
2014-12-25 16:00:00,-0.78,0.88,10.35
2014-12-25 17:00:00,-0.69,0.95,10.32
2014-12-25 18:00:00,-0.87,1.18,10.34
2014-12-25 19:00:00,-1.01,1.2,10.38
2014-12-25 20:00:00,-1.29,1.47,10.39
2014-12-25 21:00:00,-1.45,1.52,10.41
2014-12-25 22:00:00,-1.44,1.43,10.25
2014-12-25 23:00:00,-1.41,1.34,10.26
2014-12-26 00:00:00,-1.5,1.57,10.26
2014-12-26 01:00:00,-1.41,1.5,10.28
2014-12-26 02:00:00,-0.95,1.14,10.27
2014-12-26 03:00:00,-0.49,0.39,10.29
2014-12-26 04:00:00,-0.49,0.41,10.29
2014-12-26 05:00:00,-0.05,-0.1,10.26
2014-12-26 06:00:00,0.49,-0.88,10.23
2014-12-26 07:00:00,0.91,-1.54,10.21
2014-12-26 08:00:00,0.28,-0.69,10.18
2014-12-26 09:00:00,0.16,-0.46,10.2
2014-12-26 10:00:00,0.07,-0.33,10.18
2014-12-26 11:00:00,-1.17,1.57,10.12
2014-12-26 12:00:00,-1.1,1.59,10.17
2014-12-26 13:00:00,-1.07,1.44,10.2
2014-12-26 14:00:00,-0.95,1.3,10.21
2014-12-26 15:00:00,-0.66,0.91,10.21
2014-12-26 16:00:00,-0.17,0.43,10.17
2014-12-26 17:00:00,-0.1,0.26,10.16
2014-12-26 18:00:00,0.0,0.07,10.18
2014-12-26 19:00:00,-0.02,-0.13,10.21
2014-12-26 20:00:00,0.15,-0.48,10.24
2014-12-26 21:00:00,0.04,-0.43,10.27
2014-12-26 22:00:00,0.42,-1.05,10.29
2014-12-26 23:00:00,0.48,-1.04,10.3
2014-12-27 00:00:00,0.05,-0.6,10.28
2014-12-27 01:00:00,0.46,-1.17,10.22
2014-12-27 02:00:00,0.0,-0.47,10.2
2014-12-27 03:00:00,-0.16,-0.17,10.18
2014-12-27 04:00:00,-0.15,-0.1,10.17
2014-12-27 05:00:00,-0.23,0.12,10.16
2014-12-27 06:00:00,-0.89,1.04,10.24
2014-12-27 07:00:00,-1.3,1.55,10.26
2014-12-27 08:00:00,-1.46,1.8,10.28
2014-12-27 09:00:00,-1.52,1.92,10.29
2014-12-27 10:00:00,-1.58,1.93,10.28
2014-12-27 11:00:00,-1.63,2.09,10.31
2014-12-27 12:00:00,-1.63,2.12,10.34
2014-12-27 13:00:00,-1.61,2.04,10.33
2014-12-27 14:00:00,-1.53,1.89,10.35
2014-12-27 15:00:00,-1.57,1.9,10.31
2014-12-27 16:00:00,-1.53,1.94,10.26
2014-12-27 17:00:00,-1.27,1.75,10.25
2014-12-27 18:00:00,-1.26,1.57,10.33
2014-12-27 19:00:00,-0.68,0.71,10.29
2014-12-27 20:00:00,-0.38,0.16,10.22
2014-12-27 21:00:00,-0.94,0.99,10.24
2014-12-27 22:00:00,-0.17,-0.05,10.27
2014-12-27 23:00:00,-0.07,-0.26,10.26
2014-12-28 00:00:00,-0.76,0.65,10.26
2014-12-28 01:00:00,-0.93,0.96,10.27
2014-12-28 02:00:00,-0.39,0.23,10.31
2014-12-28 03:00:00,-1.09,1.04,10.32
2014-12-28 04:00:00,-1.27,1.23,10.31
2014-12-28 05:00:00,-1.34,1.34,10.25
2014-12-28 06:00:00,-1.36,1.47,10.2
2014-12-28 07:00:00,-1.42,1.56,10.16
2014-12-28 08:00:00,-1.5,1.77,10.25
2014-12-28 09:00:00,-1.16,1.58,10.29
2014-12-28 10:00:00,-0.24,0.4,10.32
2014-12-28 11:00:00,0.02,-0.14,10.37
2014-12-28 12:00:00,-0.48,0.55,10.36
2014-12-28 13:00:00,0.12,-0.24,10.37
2014-12-28 14:00:00,0.34,-0.61,10.39
2014-12-28 15:00:00,0.37,-0.78,10.34
2014-12-28 16:00:00,2.47,-3.46,10.23
2014-12-28 17:00:00,3.22,-4.32,10.34
2014-12-28 18:00:00,1.73,-2.38,10.36
2014-12-28 19:00:00,-0.09,-0.23,10.33
2014-12-28 20:00:00,-0.83,1.03,10.33
2014-12-28 21:00:00,-1.27,1.45,10.36
2014-12-28 22:00:00,-0.29,0.16,10.26
2014-12-28 23:00:00,-0.59,0.41,10.25
2014-12-29 00:00:00,-0.21,-0.03,10.23
2014-12-29 01:00:00,0.08,-0.33,10.24
2014-12-29 02:00:00,-0.63,0.59,10.23
2014-12-29 03:00:00,-1.14,1.28,10.23
2014-12-29 04:00:00,-1.4,1.57,10.23
2014-12-29 05:00:00,-1.54,1.99,10.19
2014-12-29 06:00:00,-1.44,1.69,10.19
2014-12-29 07:00:00,-1.49,1.8,10.24
2014-12-29 08:00:00,-1.5,1.96,10.22
2014-12-29 09:00:00,-1.08,1.68,10.24
2014-12-29 10:00:00,-0.43,0.96,10.33
2014-12-29 11:00:00,-0.09,0.47,10.33
2014-12-29 12:00:00,0.11,-0.02,10.32
2014-12-29 13:00:00,0.27,-0.27,10.33
2014-12-29 14:00:00,-0.14,0.2,10.32
2014-12-29 15:00:00,-0.03,-0.03,10.34
2014-12-29 16:00:00,1.07,-1.62,10.31
2014-12-29 17:00:00,1.65,-2.3,10.28
2014-12-29 18:00:00,1.44,-2.04,10.27
2014-12-29 19:00:00,1.24,-1.81,10.31
2014-12-29 20:00:00,0.57,-1.09,10.34
2014-12-29 21:00:00,0.12,-0.6,10.39
2014-12-29 22:00:00,0.51,-1.15,10.39
2014-12-29 23:00:00,0.54,-1.24,10.4
2014-12-30 00:00:00,0.27,-0.83,10.39
2014-12-30 01:00:00,0.2,-0.73,10.37
2014-12-30 02:00:00,0.45,-1.13,10.38
2014-12-30 03:00:00,1.29,-2.09,10.36
2014-12-30 04:00:00,2.67,-3.86,10.32
2014-12-30 05:00:00,3.79,-5.13,10.28
2014-12-30 06:00:00,2.65,-3.61,10.32
2014-12-30 07:00:00,2.81,-3.78,10.25
2014-12-30 08:00:00,2.3,-3.06,10.28
2014-12-30 09:00:00,1.32,-1.82,10.29
2014-12-30 10:00:00,1.23,-1.78,10.29
2014-12-30 11:00:00,1.43,-1.9,10.29
2014-12-30 12:00:00,0.95,-1.4,10.33
2014-12-30 13:00:00,1.63,-2.26,10.31
2014-12-30 14:00:00,1.86,-2.58,10.31
2014-12-30 15:00:00,1.29,-1.83,10.3
2014-12-30 16:00:00,1.36,-1.88,10.25
2014-12-30 17:00:00,2.71,-3.48,10.25
2014-12-30 18:00:00,1.35,-1.88,10.3
2014-12-30 19:00:00,3.32,-4.31,10.25
2014-12-30 20:00:00,4.26,-5.48,10.3
2014-12-30 21:00:00,3.38,-4.62,10.31
2014-12-30 22:00:00,3.75,-5.14,10.31
2014-12-30 23:00:00,3.5,-4.91,10.33
2014-12-31 00:00:00,2.89,-4.25,10.32
2014-12-31 01:00:00,2.83,-4.18,10.29
2014-12-31 02:00:00,2.96,-4.39,10.31
2014-12-31 03:00:00,2.88,-4.27,10.29
2014-12-31 04:00:00,3.04,-4.46,10.29
2014-12-31 05:00:00,3.0,-4.33,10.28
2014-12-31 06:00:00,3.86,-5.26,10.23
2014-12-31 07:00:00,3.09,-4.19,10.28
2014-12-31 08:00:00,2.33,-3.23,10.32
2014-12-31 09:00:00,1.19,-1.78,10.29
2014-12-31 10:00:00,1.31,-1.98,10.31
2014-12-31 11:00:00,1.1,-1.74,10.3
2014-12-31 12:00:00,2.21,-3.19,10.28
2014-12-31 13:00:00,1.85,-2.85,10.32
2014-12-31 14:00:00,2.33,-3.41,10.32
2014-12-31 15:00:00,1.06,-1.71,10.39
2014-12-31 16:00:00,0.17,-0.31,10.34
2014-12-31 17:00:00,1.45,-2.04,10.32
2014-12-31 18:00:00,2.07,-2.98,10.39
2014-12-31 19:00:00,1.36,-2.26,10.3
2014-12-31 20:00:00,1.34,-2.32,10.26
2014-12-31 21:00:00,0.07,-0.71,10.23
2014-12-31 22:00:00,0.19,-0.97,10.21
2014-12-31 23:00:00,0.64,-1.64,10.23
2015-01-01 00:00:00,0.4,-1.34,10.22
2015-01-01 01:00:00,0.69,-1.67,10.25
2015-01-01 02:00:00,0.8,-1.74,10.26
2015-01-01 03:00:00,2.28,-3.61,10.19
2015-01-01 04:00:00,2.23,-3.58,10.21
2015-01-01 05:00:00,4.94,-6.59,10.28
2015-01-01 06:00:00,5.99,-7.59,10.18
2015-01-01 07:00:00,6.62,-8.16,10.17
2015-01-01 08:00:00,7.3,-8.61,10.3
2015-01-01 09:00:00,7.32,-8.4,10.32
2015-01-01 10:00:00,7.29,-8.48,10.33
2015-01-01 11:00:00,7.47,-8.69,10.33
2015-01-01 12:00:00,8.06,-9.24,10.28
2015-01-01 13:00:00,7.14,-8.4,10.33
2015-01-01 14:00:00,7.03,-8.35,10.27
2015-01-01 15:00:00,5.93,-7.33,10.27
2015-01-01 16:00:00,6.13,-7.51,10.16
2015-01-01 17:00:00,6.26,-7.52,10.19
2015-01-01 18:00:00,8.0,-9.12,10.3
2015-01-01 19:00:00,8.41,-9.55,10.32
2015-01-01 20:00:00,8.58,-9.69,10.38
2015-01-01 21:00:00,8.45,-9.53,10.39
2015-01-01 22:00:00,8.35,-9.51,10.38
2015-01-01 23:00:00,8.37,-9.74,10.28
2015-01-02 00:00:00,8.42,-9.91,10.2
2015-01-02 01:00:00,8.39,-9.94,10.32
2015-01-02 02:00:00,8.15,-9.69,10.34
2015-01-02 03:00:00,8.35,-9.89,10.31
2015-01-02 04:00:00,8.47,-9.92,10.31
2015-01-02 05:00:00,8.15,-9.57,10.2
2015-01-02 06:00:00,8.11,-9.19,10.32
2015-01-02 07:00:00,8.12,-9.1,10.33
2015-01-02 08:00:00,7.97,-8.71,10.27
2015-01-02 09:00:00,7.78,-8.79,10.35
2015-01-02 10:00:00,7.85,-8.63,10.29
2015-01-02 11:00:00,8.32,-9.21,10.29
2015-01-02 12:00:00,8.49,-9.42,10.29
2015-01-02 13:00:00,8.29,-9.21,10.32
2015-01-02 14:00:00,8.17,-8.96,10.33
2015-01-02 15:00:00,8.02,-8.78,10.3
2015-01-02 16:00:00,7.47,-8.38,10.17
2015-01-02 17:00:00,6.96,-7.94,10.23
2015-01-02 18:00:00,8.2,-9.18,10.32
2015-01-02 19:00:00,8.11,-9.26,10.39
2015-01-02 20:00:00,7.95,-9.19,10.21
2015-01-02 21:00:00,7.98,-9.12,10.2
2015-01-02 22:00:00,7.92,-9.02,10.22
2015-01-02 23:00:00,8.29,-9.56,10.22
2015-01-03 00:00:00,8.03,-9.4,10.27
2015-01-03 01:00:00,7.45,-8.75,10.3
2015-01-03 02:00:00,7.19,-8.66,10.27
2015-01-03 03:00:00,6.69,-8.23,10.22
2015-01-03 04:00:00,4.59,-5.83,10.33
2015-01-03 05:00:00,1.51,-2.17,10.38
2015-01-03 06:00:00,1.69,-2.51,10.39
2015-01-03 07:00:00,2.09,-2.97,10.36
2015-01-03 08:00:00,3.31,-4.47,10.31
2015-01-03 09:00:00,3.27,-4.19,10.27
2015-01-03 10:00:00,3.3,-4.04,10.29
2015-01-03 11:00:00,2.69,-3.44,10.33
2015-01-03 12:00:00,3.6,-4.76,10.29
2015-01-03 13:00:00,3.71,-4.89,10.3
2015-01-03 14:00:00,3.8,-4.9,10.3
2015-01-03 15:00:00,1.27,-2.0,10.3
2015-01-03 16:00:00,1.27,-1.94,10.31
2015-01-03 17:00:00,0.38,-0.55,10.33
2015-01-03 18:00:00,0.87,-1.23,10.34
2015-01-03 19:00:00,1.26,-1.94,10.37
2015-01-03 20:00:00,1.17,-1.93,10.39